This demonstration page uses our WeatherBlox Daily Observations layout. Learn more.

Left ArrowRight Arrow

39.92423, -83.80882

Hourly Observations for May 26, 2020

Temp ( °F °C ) Dew Point ( °F °C ) Humidity (%) Winds ( mph kmh ) Pressure ( in mb ) Visibility ( mi km ) Precip ( " mm )
12:56 am 00:56 Clear 66 18.9 66 18.9 100 100 Calm 30.06 1018 10 16.0934 0 0
1:56 am 01:56 Clear 65 18.3 65 18.3 100 100 ENE 3 6 30.05 1018 10 16.0934 0 0
2:56 am 02:56 Clear 65 18.3 65 18.3 100 100 Calm 30.04 1017 10 16.0934 0 0
3:56 am 03:56 Clear 64 17.8 64 17.8 100 100 Calm 30.05 1018 10 16.0934 0 0
4:56 am 04:56 Clear 64 17.8 64 17.8 100 100 SE 5 7 30.06 1018 10 16.0934 0 0
5:56 am 05:56 Clear 62 16.7 62 16.7 100 100 ESE 3 6 30.07 1018 7 11.26538 0 0
6:56 am 06:56 Sunny 65 18.3 65 18.3 100 100 ESE 3 6 30.09 1019 10 16.0934 0 0
7:56 am 07:56 Sunny 69 20.6 69 20.6 100 100 SE 3 6 30.09 1019 10 16.0934 0 0
8:56 am 08:56 Sunny 72 22.2 71 21.7 97 97 S 3 6 30.1 1019 10 16.0934 0 0
9:56 am 09:56 Sunny 77 25 72 22.2 85 85 SW 3 6 30.1 1019 10 16.0934 0 0
10:56 am 10:56 Sunny 80 26.7 69 20.6 69 69 VRB 3 6 30.09 1019 10 16.0934 0 0
11:56 am 11:56 Sunny 82 27.8 70 21.1 67 67 VRB 3 6 30.09 1019 10 16.0934 0 0
12:56 pm 12:56 Partly Cloudy 83 28.3 70 21.1 65 65 ESE 7 11 30.07 1018 10 16.0934 0 0
1:56 pm 13:56 Mostly Sunny 84 28.9 72 22.2 67 67 E 5 7 30.05 1018 10 16.0934 0 0
2:56 pm 14:56 Mostly Sunny 86 30 71 21.7 61 61 S 8 13 30.03 1017 10 16.0934 0 0
3:56 pm 15:56 Sunny 86 30 66 18.9 51 51 VRB 7 11 30.01 1016 10 16.0934 0 0
4:56 pm 16:56 Sunny 85 29.4 66 18.9 53 53 ESE 8 13 30 1016 10 16.0934 0 0
5:56 pm 17:56 Partly Cloudy 86 30 68 20 55 55 SSE 13 20 29.98 1015 10 16.0934 0 0
6:56 pm 18:56 Sunny 84 28.9 66 18.9 55 55 SE 13 20 29.98 1015 10 16.0934 0 0
7:56 pm 19:56 Sunny 82 27.8 65 18.3 56 56 SE 12 19 29.99 1016 10 16.0934 0 0
8:56 pm 20:56 Clear 79 26.1 65 18.3 62 62 SSE 10 17 30.01 1016 10 16.0934 0 0
9:56 pm 21:56 Clear 74 23.3 66 18.9 76 76 SSE 7 11 30.01 1016 10 16.0934 0 0
10:56 pm 22:56 Clear 72 22.2 66 18.9 82 82 SE 5 7 30.03 1017 9 14.48406 0 0
11:56 pm 23:56 Clear 71 21.7 67 19.4 87 87 SE 7 11 30.02 1017 10 16.0934 0 0

Powered by AerisWeather